CZ-6A DEB, 60674

Orbit data source: Space-Track

CZ-6A DEB, 60674 is space debris in LEO originally from a launch on Tue, 06 Aug 2024 UTC launched from the Taiyaun Space Center, China (TSC). Debris objects in space refer to the collection of defunct objects orbiting the Earth. Examples of debris include non-operational satellites, rocket bodies, and fragments generated from explosions, collisions, or faulty payload assembly.

Loading next visibility...
Identifier
60674, 2024-140CB
Orbit
LEO
Country
Flag of CNCN / PRC
Related business
Manufacturer
SAST
Mission
Spacecraft
Bus & Motor
Unknown
Mass
Unknown
Launch date (UTC)
2024-08-06 (2 years ago)
Launch vehicle
Unknown
Launch site
Taiyaun Space Center, China (TSC)
Object type
Payload
Rocket body
Debris
Shape & HBR
Unknown shape, 0.1 m
Radar Cross Section
Medium (>0.1 m² and <1 m²)

Expand to show TLE details & history
Last TLE update: 13 hours ago

TLE from 13 hours ago
0 CZ-6A DEB
1 60674U 24140CB  26171.30181124  .00000526  00000-0  91049-4 0  9991
2 60674  89.0092 269.7443 0143620 226.7062 132.2101 14.60164123 99207
Epoch: 2026-06-20T07:14Z
TLE epoch observation values (Epoch: 2026-06-20T07:14:36.491Z)
Latitude
-0.00002°
Longitude
-107.42614°
Altitude
764.785 km
Speed
7.435 km/s
True Right ascension
17h 58m 58s
True Declination
0° 00' 00"
Sunlit
Object was in full shadow at epoch
Visualization orbit readout
Latitude
Unknown
Longitude
Unknown
Altitude
Unknown
Speed
Unknown
Apparent Right ascension
Unknown
Apparent Declination
Unknown
Sunlit
N/A
Visualization observer readout
Local Sidereal Time
07:22:43
Azimuth
Unknown
Elevation
Unknown
Doppler factor
Unknown
Orbital elements
Apogee altitude
791.043 km
Perigee altitude
588.031 km
Semi-major axis
7,067.674 km
Eccentricity
0.01436
Inclination
89.0092°
RAAN
269.7443°
Arg. of periapsis
226.7062°
True anomaly
133.41447°
Mean anomaly
132.2101°
Eccentric anomaly
132.81374°
Mean motion
3.65282 °/min
Orbital period
98.55 mins
BSTAR
0.000091049
Loading maneuver chart data...
Computing Atmospheric mass density...
Loading historical data...
Loading historical data...
Loading historical data...
Loading historical data...
Loading historical data...
Loading historical data...
Loading historical data...

Documentation

Showing up to 5 results
|